Location: Unspecified
(45.0173°N, 35.2345°E)
Time: 20:28:47
(UTC+02:00)

Tiangong - Pass Details

Date: 29 January 2026
Orbit: 386 x 393 km, 41.5° (Epoch: 6 February)

Event Time Altitude Azimuth Distance (km) Brightness Sun altitude
Exits shadow 05:59:53 - 236° (SW) 1,518 0.5 -11.3°
Reaches altitude 10° 06:00:31 10° 226° (SW) 1,428 0.4 -11.1°
Maximum altitude 06:01:21 11° 210° (SSW) 1,381 0.5 -11.0°
Drops below altitude 10° 06:02:12 10° 195° (SSW) 1,426 0.7 -10.9°
Sets 06:05:39 0° 156° (SSE) 2,278 2.4 -10.3°
